User: anonymous   Login
Location: Unspecified
(0.0000°N, 0.0000°E)
Time: 02:03:58
(UTC+00:00)
Language:

TBA - TO BE ASSIGNED - Orbit

View from above orbital plane
View from above orbital plane
View from above satellite
View from above satellite

Ground track
Ground track

The orbit is defined by the following mean orbital elements,

1 68940U          26145.37677676 +.00000000 +00000-0 +40469-3 0 00003
2 68940  51.8731 177.6275 0006102  69.4908 290.6731 15.34136040    09
Epoch (UTC): 25 May 2026 09:02:33
Eccentricity: 0.0006102
inclination: 51.8731°
perigee height: 459 km
apogee height: 468 km
right ascension of ascending node: 177.6275°
argument of perigee: 69.4908°
revolutions per day: 15.34136040
mean anomaly at epoch: 290.6731°

The dashed part of the orbit path shows where the satellite is in the earth's shadow,  

DLR